STARLINK-36123

Last updated on Fri Dec 19 2025 00:02:09 GMT+0000 (Coordinated Universal Time)

1 67007U 25293E 25351.83335648 -.00955528 29322-3 -21833-2 0 9993 2 67007 69.9936 309.0320 0004110 265.4955 116.6939 15.97188271 2380
UTC large
Height (km)
Speed (km/s)
/
Latitude / Longitude
Inclination (degrees)
Orbital Period (minutes)
Azimuth
Elevation
Range (km)
Doppler Factor

Next 0 passes for location: London (51.5072 / 0.1276)

Sorry there are no passes over London.